Location: Krakow
(50.0830°N, 19.9170°E)
Time: 04:30:24
(UTC+02:00)

Tiros 1 - Pass Details

Date: 15 February 2023
Orbit: 627 x 662 km, 48.4° (Epoch: 25 March)

Event Time Altitude Azimuth Distance (km) Brightness Sun altitude
Rises 19:11:55 0° 215° (SW) 2,908 10.9 -22.0°
Reaches altitude 10° 19:14:32 10° 202° (SSW) 2,000 9.8 -22.4°
Enters shadow 19:16:47 21° 177° (S) 1,409 8.8 -22.8°
Maximum altitude 19:18:18 25° 147° (SSE) 1,259 - -23.0°
Drops below altitude 10° 19:22:05 10° 92° (E) 2,002 - -23.6°
Sets 19:24:42 0° 79° (E) 2,913 - -24.0°
